Theta_e
309 309 313 327 337 338 341 340 336 334 328 326 326 326 326 323 327 336 330 332 338 335 328 325 325 325 325 326 326 328 331 333 335 339 339 338 336 330 330 333 332 331 330 330 330 330 330 335 336
312 318 323 335 343 348 343 338 337 327 326 325 327 326 325 325 330 328 328 334 334 335 333 331 328 326 326 324 327 330 334 335 335 336 337 338 337 336 335 335 334 334 333 332 331 330 330 330 333
321 323 335 340 342 345 342 337 333 326 325 326 326 326 327 327 328 330 329 331 332 333 333 335 334 331 329 325 327 332 335 338 336 333 338 337 336 337 336 336 335 335 335 334 333 331 330 331 333
329 336 335 338 339 337 335 333 329 327 325 325 325 326 327 327 327 331 329 329 330 333 335 335 334 332 332 334 337 337 339 339 337 338 336 336 335 334 333 334 334 334 334 334 334 331 330 332 335
334 334 334 337 337 337 333 333 326 326 324 324 324 325 327 327 328 328 328 328 328 330 333 330 329 329 328 330 337 335 338 339 337 337 336 334 334 334 334 334 333 333 333 333 334 332 331 334 335
333 327 331 332 333 332 330 330 329 326 326 324 323 328 328 327 327 327 327 327 326 327 327 328 328 328 325 323 322 322 327 333 333 331 330 331 332 332 332 332 331 331 331 331 333 333 330 332 333
332 331 332 332 332 330 330 330 329 328 325 325 324 325 328 327 327 327 327 327 327 326 327 327 326 324 324 323 322 322 323 323 324 325 325 326 329 329 329 330 330 330 330 330 331 333 330 329 330
330 329 330 330 330 329 330 330 328 328 327 325 324 324 328 326 327 326 326 326 325 325 325 325 324 323 324 325 326 327 327 326 328 326 328 327 326 326 328 328 329 330 330 331 332 333 330 329 328
330 330 331 330 329 330 326 325 326 326 327 327 325 323 327 327 327 326 326 325 324 325 324 323 323 324 327 328 329 328 327 330 328 328 327 327 325 325 325 326 329 330 332 331 333 332 331 329 328
331 331 331 330 329 329 326 323 323 327 326 326 327 325 328 328 326 324 324 323 323 324 323 323 322 322 323 323 329 329 328 327 326 326 325 325 325 325 326 325 328 329 330 331 332 332 328 330 330
330 330 328 328 329 329 328 323 323 324 326 326 325 324 324 325 324 323 323 324 324 324 322 321 322 323 324 325 328 328 328 327 326 326 325 325 324 324 324 326 327 327 327 328 331 330 330 331 329
330 329 329 328 328 328 326 324 323 323 325 326 326 324 322 322 321 322 323 323 323 323 323 326 326 326 327 329 330 328 329 328 326 324 327 327 325 324 327 327 327 327 326 327 328 329 329 330 328
330 330 329 329 328 325 325 325 325 323 326 326 324 323 323 321 321 324 324 323 324 324 325 326 327 327 328 329 327 328 327 327 326 326 327 328 326 324 325 325 326 326 326 326 327 327 327 327 326
329 328 329 329 328 326 326 326 325 325 326 326 323 322 321 321 322 324 324 323 324 324 324 327 327 328 328 328 328 328 329 329 328 327 326 327 327 325 324 325 325 324 325 326 325 325 327 327 328
325 325 326 328 327 325 326 326 326 326 325 325 323 322 321 322 324 323 324 324 325 323 324 326 327 327 327 328 330 330 329 329 328 327 327 326 326 322 324 325 325 325 324 324 325 325 326 327 327
323 326 328 326 326 326 325 327 326 326 325 325 325 325 324 323 321 324 324 325 325 323 324 326 328 327 327 329 330 330 330 330 329 328 328 324 325 321 323 325 325 325 323 324 324 324 326 328 329
323 325 326 327 326 326 326 327 326 326 325 325 326 325 324 322 324 325 324 325 326 324 326 327 328 328 329 330 330 330 330 331 331 330 329 325 322 318 326 326 325 325 323 323 323 323 325 328 328
323 325 327 328 327 326 326 327 327 326 325 325 324 325 325 325 325 325 326 327 326 324 325 329 329 330 331 329 328 331 331 332 332 330 328 326 322 323 328 327 325 325 324 323 323 324 326 328 330
323 325 327 328 327 326 329 329 327 327 326 324 324 325 327 325 324 326 327 327 325 325 326 329 330 330 331 328 331 330 331 330 330 329 329 328 328 327 328 326 326 324 324 324 324 326 327 329 329
325 324 325 325 326 327 328 328 328 328 327 325 324 324 324 325 325 325 327 327 325 325 326 330 331 330 329 328 332 331 331 330 331 330 330 329 328 327 328 327 326 324 325 324 325 326 328 329 330
325 325 324 325 327 327 327 327 329 328 326 325 325 324 325 325 325 325 327 327 325 325 325 330 330 330 328 330 331 330 330 330 331 330 330 328 327 328 327 326 326 325 326 325 326 327 328 330 331
324 325 325 326 328 328 327 327 327 327 325 325 324 324 325 324 325 326 327 327 326 326 327 328 330 328 328 328 329 332 332 331 330 329 329 328 328 326 327 325 326 325 325 326 327 327 328 328 330
324 325 325 327 327 326 325 325 325 326 327 325 322 325 325 324 326 326 327 328 326 326 325 330 328 327 330 330 330 332 332 331 331 328 329 327 328 327 327 328 326 327 327 327 328 326 328 324 330
325 325 326 327 324 326 327 326 326 327 327 325 323 324 327 325 325 326 328 329 327 326 327 327 328 328 330 331 330 330 329 330 329 329 329 328 328 328 328 327 327 326 327 327 328 325 328 324 330
325 323 326 326 323 326 326 327 326 326 326 323 325 326 326 326 326 327 328 326 326 326 325 327 329 326 326 329 330 330 327 329 327 326 327 328 327 327 327 327 327 326 326 326 327 328 329 328 331
322 323 327 329 329 326 326 327 327 327 324 323 327 327 327 325 326 327 326 325 325 323 326 326 328 326 325 328 329 330 331 327 325 326 327 327 327 326 326 326 327 326 327 328 327 328 329 330 332
321 325 323 325 326 326 326 328 328 324 323 322 330 329 326 325 325 326 326 324 325 323 323 323 328 325 325 328 328 331 330 328 327 323 327 327 326 327 328 328 328 328 328 327 328 328 330 330 331
322 325 325 322 325 327 328 329 330 324 323 324 332 329 328 326 326 326 325 324 325 323 322 321 326 325 326 327 328 331 330 330 330 329 327 328 326 326 328 329 330 329 329 328 328 330 329 328 330
322 326 323 320 321 325 327 329 325 324 326 330 332 330 328 326 325 326 324 326 326 324 322 323 326 324 325 326 327 329 332 331 332 329 327 327 326 327 328 329 330 329 329 328 328 327 328 329 329
324 325 322 323 326 325 328 328 328 330 330 330 333 331 326 325 324 325 324 325 325 325 324 324 326 325 324 326 326 329 331 332 331 331 328 329 329 328 328 329 329 330 330 329 328 329 327 328 329
Wind_Speed
9 9 7 3 2 2 5 8 6 2 5 4 7 7 2 6 4 4 17 16 18 22 20 19 16 14 12 11 11 11 10 9 8 9 10 10 11 11 12 9 8 7 8 10 11 12 13 12 11
12 9 3 3 2 1 4 10 15 5 6 7 3 4 6 3 6 9 12 20 19 18 17 15 14 12 12 11 13 12 11 10 10 11 11 10 12 13 14 12 12 11 10 11 12 13 14 14 12
9 10 2 4 3 5 4 12 14 7 6 4 3 4 5 8 9 13 21 21 17 16 14 13 13 12 11 10 12 13 12 13 12 12 11 11 13 14 15 15 15 15 14 14 13 14 14 15 13
3 4 4 1 10 12 4 9 4 4 5 6 5 6 5 11 7 18 21 17 13 15 17 13 10 8 9 9 10 11 13 14 14 12 12 13 14 16 16 16 18 17 17 17 16 15 15 14 14
5 3 4 5 12 16 4 8 4 5 7 2 6 3 7 6 23 22 19 14 13 16 17 13 9 7 6 8 10 13 14 12 13 13 12 14 14 16 16 16 17 18 19 18 19 17 16 14 13
3 1 3 6 14 7 5 4 5 4 5 5 6 9 4 16 18 18 16 14 14 16 12 9 7 4 6 7 8 10 12 14 15 16 15 15 15 16 17 18 19 21 22 22 20 21 19 16 14
5 2 7 13 15 15 12 5 1 3 2 2 4 2 5 9 19 19 18 17 11 9 10 9 8 8 8 9 11 9 10 10 12 14 15 15 16 18 19 20 21 23 24 24 24 23 21 18 18
3 2 10 13 11 13 15 4 9 7 6 8 9 5 6 8 22 18 18 14 13 15 13 13 10 9 10 11 9 8 7 8 8 9 8 8 8 10 13 15 18 19 21 21 22 21 21 20 19
12 6 13 17 14 17 10 6 6 6 1 2 7 8 11 28 22 19 19 20 17 20 17 16 11 11 10 4 5 7 6 6 7 6 7 8 10 9 9 13 15 19 19 20 19 21 20 19 18
13 9 22 15 17 17 9 8 8 7 9 8 3 9 23 27 25 18 14 15 20 25 22 14 14 10 7 6 4 4 5 10 13 14 12 11 10 11 12 12 11 10 16 18 17 19 19 17 16
18 18 18 16 21 21 14 8 8 11 11 8 6 10 12 10 16 14 18 21 14 19 16 9 3 4 6 5 8 9 10 13 9 12 10 11 10 10 8 9 11 12 10 14 16 17 20 20 17
18 21 21 22 21 20 8 6 9 14 14 7 5 14 9 9 10 11 11 22 19 17 12 10 4 4 3 4 8 8 7 8 12 13 11 14 12 10 8 9 8 11 11 14 17 20 21 18 16
21 23 22 22 21 9 5 9 14 20 9 7 7 10 11 10 9 17 12 19 20 18 13 7 6 3 5 6 5 8 13 16 13 11 12 14 13 10 12 8 8 9 12 13 17 20 21 20 19
19 18 21 23 18 7 9 14 18 16 7 8 8 8 9 11 11 12 19 19 16 15 9 7 4 5 5 5 8 11 12 13 13 14 13 11 12 11 10 9 11 12 13 14 17 22 23 23 19
16 22 23 19 14 11 14 17 17 10 8 8 9 10 10 10 18 17 24 21 20 14 11 8 7 6 7 6 10 11 12 14 14 13 12 10 13 12 11 11 11 12 14 13 18 19 19 19 19
18 18 19 10 12 20 10 19 14 10 9 10 11 10 9 11 15 24 30 23 20 16 11 9 5 5 7 8 11 12 13 12 14 14 12 12 13 12 11 11 11 12 12 16 18 20 17 18 17
11 13 14 15 18 22 12 20 18 11 9 9 10 9 11 11 6 24 29 26 21 15 11 8 6 7 7 9 13 15 14 13 14 13 12 11 10 11 10 12 9 10 11 17 20 21 19 16 18
13 10 13 18 24 18 18 16 9 12 12 12 10 9 9 9 14 24 31 28 22 16 11 9 7 5 7 9 12 6 7 9 10 9 9 9 9 8 9 10 7 8 9 15 18 20 19 17 16
14 14 19 23 21 22 5 20 10 11 8 8 9 8 8 11 10 25 31 27 23 17 14 10 9 7 7 8 8 2 5 6 6 6 6 7 8 9 8 8 6 8 9 14 16 16 15 17 15
17 19 24 23 21 10 17 18 9 8 6 9 11 10 6 8 12 12 24 26 24 19 14 11 10 9 5 6 7 4 5 6 8 6 6 6 7 8 10 9 7 9 8 11 13 16 13 12 16
20 20 21 20 22 18 5 7 4 4 8 9 12 8 14 19 15 12 13 23 23 18 14 13 10 7 2 3 6 4 9 9 3 4 4 3 3 6 6 5 9 10 10 12 13 16 12 9 16
21 20 23 23 17 8 2 5 4 6 9 9 7 10 14 16 13 13 12 16 23 17 16 12 11 5 5 3 7 5 7 5 7 3 5 4 4 4 6 9 10 7 8 14 16 15 15 15 13
22 18 21 22 16 5 3 3 5 6 9 17 8 12 15 16 18 16 13 19 22 18 17 14 10 6 4 1 4 3 8 12 7 5 6 4 5 7 6 12 9 7 5 13 15 15 21 18 17
24 16 18 13 5 2 6 7 6 7 8 5 7 10 14 11 14 13 18 25 22 17 18 13 10 9 4 5 2 8 9 11 10 8 8 7 3 7 11 12 10 8 6 10 12 13 19 18 15
19 12 7 3 1 6 5 4 9 10 9 7 8 9 11 13 15 15 14 12 19 21 19 15 10 8 5 3 5 7 9 9 10 10 8 8 8 10 12 11 10 10 9 9 11 14 13 16 20
16 14 6 8 4 7 7 9 17 12 10 10 11 10 12 12 13 13 12 14 20 19 20 15 13 11 6 7 5 8 5 7 7 7 7 8 9 11 10 11 10 9 10 11 11 13 15 16 23
21 10 12 5 2 2 5 8 5 7 9 9 13 13 11 10 11 12 12 18 22 21 20 14 13 12 8 10 5 6 6 6 5 8 10 9 12 10 8 9 9 12 13 12 15 20 23 23 24
23 7 6 2 7 6 6 6 4 9 10 7 13 12 10 10 11 11 12 16 23 23 19 12 12 14 12 8 6 8 6 6 5 6 8 9 11 8 9 11 13 15 16 18 22 23 23 24 23
12 5 4 7 6 5 3 7 8 10 9 15 15 14 15 14 12 11 10 19 25 23 19 13 12 13 13 7 9 7 8 10 6 7 8 10 9 9 12 12 16 17 20 22 25 23 23 23 22
9 8 8 8 6 5 5 6 6 11 11 11 15 13 10 13 11 12 11 17 23 23 20 16 12 14 13 12 9 7 8 9 8 11 8 11 11 10 13 15 18 20 22 23 24 24 23 23 22
Wind_Direction
176 168 171 265 23 142 260 283 302 359 56 64 75 85 18 58 89 172 140 123 147 161 169 174 185 192 197 206 214 220 224 232 239 239 240 233 244 266 267 270 271 271 265 259 251 250 251 261 264
169 156 233 266 166 286 284 316 304 63 151 109 94 146 99 57 93 128 123 139 147 157 173 181 191 197 203 213 221 226 232 243 244 244 248 249 247 250 257 261 265 262 259 254 250 246 247 252 260
163 218 323 194 216 220 267 238 326 10 40 116 132 90 86 134 122 144 141 138 141 157 176 183 190 194 206 228 230 232 244 244 242 249 242 250 252 255 254 255 258 257 256 255 251 246 246 250 253
212 272 300 238 257 263 222 283 315 16 337 183 147 106 58 134 120 146 154 159 166 174 177 177 182 197 223 238 246 253 247 246 247 248 250 250 251 254 256 255 256 257 255 255 251 246 242 245 252
254 259 226 259 267 275 279 245 73 4 321 10 134 156 113 75 127 144 149 154 134 136 162 160 166 185 221 242 245 247 250 249 248 244 247 246 245 248 252 253 255 256 252 253 249 240 238 236 246
285 165 302 278 284 304 282 59 348 354 305 6 32 101 177 136 138 150 159 156 149 128 135 158 165 212 261 272 273 261 258 256 260 264 262 258 255 255 255 254 252 252 252 248 245 237 230 234 238
227 291 259 275 287 306 304 158 224 261 215 136 120 43 146 164 163 160 155 157 146 150 163 185 218 244 254 251 237 244 255 266 279 287 286 275 267 263 262 260 255 251 248 248 241 231 223 228 235
217 244 278 274 285 284 293 199 200 228 226 163 147 165 185 208 160 155 163 171 175 179 190 196 212 230 231 215 223 239 241 275 288 311 284 282 283 286 265 262 255 247 244 244 238 227 221 225 235
244 250 261 264 270 276 311 350 317 329 164 214 192 165 157 158 160 160 168 175 180 183 183 187 189 159 151 169 249 255 282 275 291 275 273 273 275 281 284 269 276 249 241 236 228 220 216 224 234
229 233 248 258 269 277 298 327 325 350 319 293 228 92 140 156 165 167 179 185 195 181 186 176 177 185 206 270 287 233 271 279 269 284 284 268 277 269 266 272 280 264 242 231 221 214 212 218 224
237 240 251 254 259 272 285 317 310 308 292 270 155 157 156 160 169 186 191 196 176 140 140 143 169 243 274 274 254 283 296 269 267 289 284 265 269 275 275 278 272 263 252 220 208 204 209 214 221
250 245 250 255 258 256 255 290 291 280 266 259 191 153 158 167 185 188 196 143 148 143 134 129 146 187 260 237 258 272 292 273 292 290 280 268 269 267 274 276 264 255 248 225 207 200 210 214 222
243 248 253 260 265 247 262 267 264 268 274 296 137 138 171 176 184 194 183 146 134 130 133 140 178 234 243 286 286 269 272 277 285 283 278 276 259 266 271 265 266 253 252 230 208 208 215 221 218
249 254 252 254 263 247 257 262 260 253 248 239 149 159 169 175 189 165 146 144 140 140 143 167 203 212 279 286 270 275 271 281 276 276 278 277 255 268 269 260 254 254 234 239 223 221 218 221 227
259 264 273 266 265 259 243 254 254 251 225 229 200 206 204 196 165 172 164 155 150 150 156 180 212 244 232 279 275 273 283 282 276 268 263 261 253 270 273 266 257 268 241 229 226 229 226 227 231
276 260 258 253 265 259 230 258 239 236 218 238 227 225 188 200 185 175 165 149 148 142 170 186 199 208 220 247 273 274 283 286 273 260 260 270 265 263 278 263 256 265 245 226 221 225 224 222 220
258 260 262 268 246 259 226 247 244 205 221 252 227 228 205 209 131 151 159 158 156 161 155 184 198 207 228 259 280 283 286 282 271 262 265 271 269 257 268 263 264 261 247 216 217 221 221 223 205
235 257 253 256 259 256 258 261 199 202 205 227 246 227 223 167 159 150 155 153 152 157 170 183 214 212 236 278 299 292 298 289 275 274 276 275 272 253 255 260 258 246 221 210 211 219 212 224 204
242 248 249 254 257 250 273 271 217 209 207 226 241 242 219 161 155 143 151 154 153 155 169 189 204 209 239 289 303 352 324 294 260 266 286 288 285 259 246 254 241 218 211 202 206 211 209 226 199
228 249 261 274 278 265 214 245 236 206 207 218 229 244 198 118 137 142 144 152 156 159 168 193 200 229 227 296 316 322 335 321 263 256 266 272 269 244 224 236 221 200 195 197 206 208 204 200 183
239 232 250 258 275 285 289 320 296 235 229 258 245 213 141 150 152 153 150 153 158 164 176 191 208 183 265 341 26 31 10 359 310 273 293 279 231 201 198 189 182 184 188 185 195 189 190 173 178
239 223 236 249 258 253 101 276 302 301 289 280 255 133 148 156 155 154 154 151 162 170 174 191 176 186 189 15 21 31 31 343 340 320 10 127 140 177 157 161 173 172 150 155 157 160 171 176 169
241 224 231 240 249 225 275 292 253 277 283 286 171 155 161 162 156 160 154 152 164 171 178 171 167 179 155 185 38 28 9 1 359 69 73 105 162 177 163 163 164 158 157 156 153 148 167 181 176
231 232 240 243 196 262 212 182 263 234 239 198 169 162 163 146 143 138 145 154 162 174 166 161 177 172 175 218 65 65 26 35 73 81 87 63 154 162 163 158 156 161 148 166 163 159 170 163 168
222 218 243 315 344 228 216 278 236 260 231 163 130 127 138 135 138 144 148 148 159 161 163 165 183 169 203 225 88 86 58 73 80 74 80 70 113 141 157 166 162 161 162 162 159 166 173 165 153
224 198 176 200 168 250 243 238 249 221 165 119 129 127 125 131 142 145 141 147 155 162 162 173 187 170 201 149 118 109 70 99 87 84 83 96 119 142 151 170 174 163 165 166 155 147 143 142 143
240 203 182 139 212 248 238 276 224 158 126 127 129 124 130 134 139 142 141 150 157 163 167 186 181 171 187 132 147 148 115 126 128 108 81 93 116 125 138 149 154 159 164 160 151 141 130 127 132
211 173 137 76 194 263 291 306 225 151 172 160 135 135 137 140 142 144 146 151 162 167 171 186 182 167 157 152 174 148 122 114 125 138 91 110 119 116 141 146 147 146 150 149 145 131 135 128 131
217 173 123 131 151 179 233 267 207 175 161 145 150 150 150 153 149 146 147 153 162 165 169 180 168 167 158 146 131 138 146 130 95 98 98 119 123 118 133 138 145 141 146 149 143 133 138 133 126
189 159 150 173 226 225 178 272 140 141 152 134 146 149 147 150 145 147 147 147 154 164 170 178 186 171 160 158 146 129 133 108 103 106 102 134 122 129 129 138 144 143 136 141 142 139 135 127 129